Weather History for Waycross, GA

Change the Weather History Date:

Wednesday, April 10, 2013

  Actual Average (KAMG) Record (KAMG)
Temperature  
Mean Temperature 70 °F 65 °F  
Max Temperature 84 °F 78 °F 91 °F (1978)
Min Temperature 55 °F 53 °F 34 °F (1985)
Degree Days  
Heating Degree Days 0 3  
Month to date heating degree days 31  
Since 1 July heating degree days 1620  
Cooling Degree Days 4 3  
Month to date cooling degree days 23  
Year to date cooling degree days 77  
Growing Degree Days 20 (Base 50)    
Moisture  
Dew Point 61 °F    
Average Humidity 73    
Maximum Humidity 100    
Minimum Humidity 45    
Precipitation  
Precipitation 0.00 in 0.11 in 3.58 in (1975)
Month to date precipitation 1.09  
Year to date precipitation 13.90  
Snow  
Snow 0.00 in 0.00 in 0.00 in ()
Month to date snowfall 0.0  
Since 1 July snowfall 0.1  
Snow Depth -    
Sea Level Pressure  
Sea Level Pressure 30.08 in    
Wind  
Wind Speed 5 mph (SSE)    
Max Wind Speed 12 mph    
Max Gust Speed 18 mph    
Visibility 10 miles    
Events      
T = Trace of Precipitation, MM = Missing Value Source: NWS Daily Summary

Daily Weather History Graph

Daily Weather History Graph

Search for Another Location

Airport:

Trip Planner

Search our weather history database for the weather conditions in past years. The results will help you decide how hot, cold, wet, or windy it might be!

Date:

Astronomy

Apr. 10, 2013 Rise Set
Actual Time 7:07 AM EDT 7:54 PM EDT
Civil Twilight 6:42 AM EDT 8:19 PM EDT
Nautical Twilight 6:13 AM EDT 8:48 PM EDT
Astronomical Twilight 5:43 AM EDT 9:18 PM EDT
Moon 7:04 AM EDT (4/10) 8:25 PM EDT (4/10)
Length of Visible Light 13h 37m
Length of Day
12h 47m
Waxing Crescent, 0% of the Moon is Illuminated
Apr 10
Waxing Crescent
Apr 18
First Quarter
Apr 25
Full
May 2
Last Quarter
May 9
New

Hourly Weather History & Observations

Time (EDT) Temp. Heat Index Dew Point Humidity Pressure Visibility Wind Dir Wind Speed Gust Speed Precip Events Conditions
12:15 AM 66.2 °F - 60.8 °F 83% 30.14 in 10.0 mi SSE 5.8 mph - N/A   Clear
12:35 AM 66.2 °F - 60.8 °F 83% 30.14 in 10.0 mi SSE 4.6 mph - N/A   Clear
12:55 AM 66.2 °F - 60.8 °F 83% 30.14 in 10.0 mi SSE 3.5 mph - N/A   Clear
1:15 AM 64.4 °F - 60.8 °F 88% 30.13 in 10.0 mi South 4.6 mph - N/A   Clear
1:35 AM 64.4 °F - 60.8 °F 88% 30.13 in 10.0 mi SSE 4.6 mph - N/A   Clear
1:55 AM 64.4 °F - 60.8 °F 88% 30.12 in 10.0 mi SSE 4.6 mph - N/A   Clear
2:15 AM 64.4 °F - 60.8 °F 88% 30.12 in 10.0 mi SSE 3.5 mph - N/A   Clear
2:35 AM 64.4 °F - 60.8 °F 88% 30.11 in 10.0 mi SSE 3.5 mph - N/A   Clear
2:55 AM 64.4 °F - 60.8 °F 88% 30.11 in 10.0 mi South 3.5 mph - N/A   Clear
3:15 AM 64.4 °F - 60.8 °F 88% 30.11 in 10.0 mi South 3.5 mph - N/A   Clear
3:35 AM 62.6 °F - 59.0 °F 88% 30.11 in 10.0 mi South 3.5 mph - N/A   Clear
3:55 AM 62.6 °F - 59.0 °F 88% 30.11 in 10.0 mi Calm Calm - N/A   Clear
4:15 AM 60.8 °F - 57.2 °F 88% 30.11 in 10.0 mi Calm Calm - N/A   Clear
4:35 AM 59.0 °F - 57.2 °F 94% 30.11 in 10.0 mi Calm Calm - N/A   Clear
4:55 AM 57.2 °F - 57.2 °F 100% 30.11 in 10.0 mi Calm Calm - N/A   Clear
5:15 AM 57.2 °F - 57.2 °F 100% 30.11 in 10.0 mi Calm Calm - N/A   Clear
5:35 AM 57.2 °F - 57.2 °F 100% 30.11 in 7.0 mi Calm Calm - N/A   Clear
5:55 AM 57.2 °F - 57.2 °F 100% 30.10 in 5.0 mi Calm Calm - N/A   Clear
6:15 AM 57.2 °F - 55.4 °F 94% 30.10 in 7.0 mi Calm Calm - N/A   Clear
6:35 AM 55.4 °F - 55.4 °F 100% 30.11 in 7.0 mi Calm Calm - N/A   Clear
6:55 AM 55.4 °F - 55.4 °F 100% 30.11 in 1.8 mi Calm Calm - N/A   Unknown
7:15 AM 55.4 °F - 55.4 °F 100% 30.12 in 5.0 mi Calm Calm - N/A   Clear
7:35 AM 55.4 °F - 55.4 °F 100% 30.12 in 7.0 mi Calm Calm - N/A   Clear
7:55 AM 57.2 °F - 57.2 °F 100% 30.11 in 10.0 mi East 3.5 mph - N/A   Clear
8:15 AM 60.8 °F - 60.8 °F 100% 30.12 in 10.0 mi Calm Calm - N/A   Clear
8:35 AM 62.6 °F - 62.6 °F 100% 30.13 in 10.0 mi Calm Calm - N/A   Clear
8:55 AM 64.4 °F - 62.6 °F 94% 30.14 in 10.0 mi Calm Calm - N/A   Clear
9:15 AM 69.8 °F - 62.6 °F 78% 30.15 in 10.0 mi South 4.6 mph - N/A   Clear
9:35 AM 71.6 °F - 62.6 °F 73% 30.15 in 10.0 mi South 4.6 mph - N/A   Clear
9:55 AM 71.6 °F - 60.8 °F 69% 30.14 in 10.0 mi SSE 4.6 mph - N/A   Clear
10:15 AM 73.4 °F - 60.8 °F 65% 30.14 in 10.0 mi South 8.1 mph - N/A   Clear
10:35 AM 73.4 °F - 60.8 °F 65% 30.14 in 10.0 mi SSE 9.2 mph - N/A   Clear
10:55 AM 75.2 °F - 60.8 °F 61% 30.14 in 10.0 mi SSE 9.2 mph - N/A   Clear
11:15 AM 75.2 °F - 60.8 °F 61% 30.14 in 10.0 mi South 3.5 mph - N/A   Clear
11:35 AM 77.0 °F - 60.8 °F 57% 30.14 in 10.0 mi South 9.2 mph - N/A   Clear
11:55 AM 78.8 °F - 60.8 °F 54% 30.14 in 10.0 mi SSE 6.9 mph - N/A   Scattered Clouds
12:15 PM 78.8 °F - 60.8 °F 54% 30.14 in 10.0 mi SSE 10.4 mph 16.1 mph N/A   Scattered Clouds
12:35 PM 78.8 °F - 60.8 °F 54% 30.13 in 10.0 mi SSW 5.8 mph - N/A   Scattered Clouds
12:55 PM 78.8 °F - 60.8 °F 54% 30.12 in 10.0 mi South 10.4 mph - N/A   Mostly Cloudy
1:15 PM 80.6 °F 81.5 °F 60.8 °F 51% 30.11 in 10.0 mi SSW 4.6 mph - N/A   Scattered Clouds
1:35 PM 80.6 °F 81.5 °F 60.8 °F 51% 30.11 in 10.0 mi South 6.9 mph - N/A   Scattered Clouds
1:55 PM 80.6 °F 81.5 °F 60.8 °F 51% 30.10 in 10.0 mi SSE 8.1 mph - N/A   Mostly Cloudy
2:15 PM 80.6 °F 81.5 °F 60.8 °F 51% 30.09 in 10.0 mi South 8.1 mph - N/A   Mostly Cloudy
2:35 PM 82.4 °F 82.9 °F 60.8 °F 48% 30.08 in 10.0 mi ESE 8.1 mph - N/A   Mostly Cloudy
2:55 PM 82.4 °F 82.9 °F 60.8 °F 48% 30.07 in 10.0 mi SSE 8.1 mph - N/A   Mostly Cloudy
3:15 PM 82.4 °F 82.9 °F 60.8 °F 48% 30.07 in 10.0 mi SE 5.8 mph - N/A   Mostly Cloudy
3:35 PM 84.2 °F 84.4 °F 60.8 °F 45% 30.05 in 10.0 mi South 8.1 mph 18.4 mph N/A   Mostly Cloudy
3:55 PM 84.2 °F 84.4 °F 60.8 °F 45% 30.04 in 10.0 mi SSE 5.8 mph 16.1 mph N/A   Mostly Cloudy
4:15 PM 84.2 °F 84.4 °F 60.8 °F 45% 30.03 in 10.0 mi SE 6.9 mph - N/A   Scattered Clouds
4:35 PM 82.4 °F 82.9 °F 60.8 °F 48% 30.03 in 10.0 mi ESE 8.1 mph - N/A   Mostly Cloudy
4:55 PM 82.4 °F 82.9 °F 60.8 °F 48% 30.02 in 10.0 mi SE 6.9 mph - N/A   Scattered Clouds
5:15 PM 80.6 °F 81.5 °F 60.8 °F 51% 30.02 in 10.0 mi ESE 6.9 mph - N/A   Scattered Clouds
5:35 PM 84.2 °F 84.4 °F 60.8 °F 45% 30.01 in 10.0 mi ESE 9.2 mph - N/A   Scattered Clouds
5:55 PM 82.4 °F 83.4 °F 62.6 °F 51% 30.01 in 10.0 mi SSE 5.8 mph - N/A   Scattered Clouds
6:15 PM 82.4 °F 83.4 °F 62.6 °F 51% 30.01 in 10.0 mi SE 11.5 mph - N/A   Mostly Cloudy
6:35 PM 80.6 °F 82.3 °F 64.4 °F 58% 30.01 in 10.0 mi SE 10.4 mph - N/A   Mostly Cloudy
6:55 PM 80.6 °F 82.3 °F 64.4 °F 58% 30.02 in 10.0 mi SSE 5.8 mph - N/A   Overcast
7:15 PM 78.8 °F - 64.4 °F 61% 30.02 in 10.0 mi SE 9.2 mph - N/A   Overcast
7:35 PM 78.8 °F - 64.4 °F 61% 30.02 in 10.0 mi SE 6.9 mph - N/A   Overcast
7:55 PM 75.2 °F - 64.4 °F 69% 30.02 in 10.0 mi SE 9.2 mph - N/A   Mostly Cloudy
8:15 PM 75.2 °F - 64.4 °F 69% 30.01 in 10.0 mi ESE 9.2 mph - N/A   Scattered Clouds
8:35 PM 73.4 °F - 64.4 °F 73% 30.01 in 10.0 mi ESE 8.1 mph - N/A   Clear
8:55 PM 73.4 °F - 62.6 °F 69% 30.01 in 10.0 mi ESE 10.4 mph - N/A   Clear
9:15 PM 71.6 °F - 62.6 °F 73% 30.01 in 10.0 mi ESE 8.1 mph - N/A   Clear
9:35 PM 71.6 °F - 62.6 °F 73% 30.02 in 10.0 mi ESE 6.9 mph - N/A   Clear
9:55 PM 71.6 °F - 62.6 °F 73% 30.02 in 10.0 mi SE 9.2 mph - N/A   Clear
10:15 PM 71.6 °F - 62.6 °F 73% 30.01 in 10.0 mi SE 8.1 mph - N/A   Clear
10:55 PM 69.8 °F - 64.4 °F 83% 30.01 in 10.0 mi SE 9.2 mph - N/A   Clear
11:15 PM 69.8 °F - 64.4 °F 83% 30.01 in 10.0 mi SE 6.9 mph - N/A   Clear
11:35 PM 69.8 °F - 64.4 °F 83% 30.00 in 7.0 mi SSE 9.2 mph - N/A   Clear
11:55 PM 69.8 °F - 64.4 °F 83% 30.00 in 10.0 mi SSE 6.9 mph - N/A   Clear